Location: Audinghen
(50.8518°N, 1.6129°E)
Time: 09:03:16
(UTC+00:00)

SL-4 R/B - Pass Details

Date: 07 August 2020
Orbit: 428 x 665 km, 51.6° (Epoch: 20 September)

Event Time Altitude Azimuth Distance (km) Brightness Sun altitude
Exits shadow 00:22:13 14° 85° (E) 1,304 4.0 -22.6°
Drops below altitude 10° 00:22:48 10° 86° (E) 1,542 4.4 -22.6°
Sets 00:24:53 0° 88° (E) 2,398 5.4 -22.6°
